Eelde, Netherlands

11:46 PM CET on March 25, 2017 (GMT +0100)
Eelde

Weather History for EHGG - November, 2013

Change the Weather History Date:

Friday, November 1, 2013

  Actual Average Record
Temperature  
Mean Temperature 51 °F -  
Max Temperature 53 °F 47 °F 64 °F (2014)
Min Temperature 49 °F 36 °F 33 °F (1997)
Degree Days  
Heating Degree Days 14    
Growing Degree Days 1 (Base 50)    
Moisture  
Dew Point 49 °F    
Average Humidity 92    
Maximum Humidity 100    
Minimum Humidity 84    
Precipitation  
Precipitation 0.12 in 0.10 in - ()
Sea Level Pressure  
Sea Level Pressure 29.87 in    
Wind  
Wind Speed 12 mph ()    
Max Wind Speed 16 mph    
Max Gust Speed -    
Visibility 5.5 miles    
Events Rain    
Averages and records for this station are not official NWS values.
T = Trace of Precipitation, MM = Missing Value Source: Averaged Metar Reports

Daily Weather History Graph

Daily Weather History Graph

Search for Another Location

Airport or City:

Trip Planner

Search our weather history database for the weather conditions in past years. The results will help you decide how hot, cold, wet, or windy it might be!

Date:

Astronomy

Nov. 01, 2013 Rise Set
Actual Time 7:31 AM CET 5:01 PM CET
Civil Twilight 6:55 AM CET 5:38 PM CET
Nautical Twilight 6:14 AM CET 6:19 PM CET
Astronomical Twilight 5:33 AM CET 6:59 PM CET
Moon 4:50 AM CET (11/1) 3:58 PM CET (11/1)
Length of Visible Light 10h 43m
Length of Day
9h 30m
Waning Crescent, 5% of the Moon is Illuminated
Nov 1
Waning Crescent
Nov 3
New
Nov 10
First Quarter
Nov 17
Full
Nov 25
Last Quarter

Hourly Weather History & Observations

Time (CET) Temp. Dew Point Humidity Pressure Visibility Wind Dir Wind Speed Gust Speed Precip Events Conditions
12:25 AM 50.0 °F 48.2 °F 94% 29.95 in 6.2 mi SSW 11.5 mph - N/A   Partly Cloudy
12:55 AM 50.0 °F 48.2 °F 94% 29.95 in 6.2 mi SSW 11.5 mph - N/A   Scattered Clouds
1:00 AM 50 °F 48 °F 89% 29.96 in 6 mi SW 11.2 mph - -   Partly Cloudy
1:25 AM 50.0 °F 48.2 °F 94% 29.95 in 6.2 mi SSW 12.7 mph - N/A   Partly Cloudy
1:55 AM 50.0 °F 48.2 °F 94% 29.95 in 6.2 mi SSW 12.7 mph - N/A   Scattered Clouds
2:25 AM 50.0 °F 48.2 °F 94% 29.95 in 6.2 mi SSW 13.8 mph - N/A   Mostly Cloudy
2:55 AM 50.0 °F 48.2 °F 94% 29.95 in 5.6 mi SSW 12.7 mph - N/A   Overcast
3:25 AM 51.8 °F 48.2 °F 88% 29.92 in 5.6 mi SSW 15.0 mph - N/A   Overcast
3:55 AM 51.8 °F 50.0 °F 94% 29.92 in 6.2 mi SSW 15.0 mph - N/A   Overcast
4:00 AM 51 °F 49 °F 91% 29.94 in 6 mi SSW 13.4 mph - - Rain Light Rain Showers
4:25 AM 51.8 °F 48.2 °F 88% 29.92 in 6.2 mi SSW 13.8 mph - N/A   Overcast
4:55 AM 51.8 °F 48.2 °F 88% 29.92 in 5.6 mi SSW 13.8 mph - N/A   Overcast
5:25 AM 51.8 °F 48.2 °F 88% 29.92 in 5.6 mi SSW 15.0 mph - N/A   Overcast
5:55 AM 51.8 °F 48.2 °F 88% 29.89 in 5.6 mi SSW 15.0 mph - N/A   Overcast
6:25 AM 51.8 °F 48.2 °F 88% 29.89 in 5.6 mi SSW 15.0 mph - N/A   Mostly Cloudy
6:55 AM 51.8 °F 48.2 °F 88% 29.89 in 6.2 mi SSW 13.8 mph - N/A   Scattered Clouds
7:00 AM 51 °F 48 °F 87% 29.91 in 7 mi SSW 13.4 mph - -   Partly Cloudy
7:25 AM 51.8 °F 48.2 °F 88% 29.89 in 6.2 mi SSW 12.7 mph - N/A   Drizzle
7:55 AM 50.0 °F 48.2 °F 94% 29.92 in 5.0 mi SSW 13.8 mph - N/A Rain Light Rain
8:25 AM 50.0 °F 48.2 °F 94% 29.92 in 5.6 mi SSW 13.8 mph - N/A Rain Light Rain
8:55 AM 50.0 °F 48.2 °F 94% 29.92 in 4.3 mi SSW 15.0 mph - N/A Rain Light Rain
9:25 AM 50.0 °F 48.2 °F 94% 29.92 in 5.0 mi SSW 13.8 mph - N/A Rain Light Rain
9:55 AM 51.8 °F 50.0 °F 94% 29.92 in 5.0 mi SSW 15.0 mph - N/A   Partly Cloudy
10:00 AM 52 °F 49 °F 87% 29.92 in 6 mi SSW 15.7 mph - - Rain Rain
10:25 AM 51.8 °F 50.0 °F 94% 29.89 in 5.6 mi SSW 15.0 mph - N/A   Drizzle
10:55 AM 51.8 °F 50.0 °F 94% 29.89 in 6.2 mi SSW 13.8 mph - N/A Rain Light Rain
11:25 AM 51.8 °F 50.0 °F 94% 29.89 in 5.6 mi SSW 13.8 mph - N/A Rain Light Rain
11:55 AM 53.6 °F 50.0 °F 88% 29.89 in 6.2 mi SSW 16.1 mph - N/A   Mostly Cloudy
12:25 PM 53.6 °F 50.0 °F 88% 29.89 in 6.2 mi SSW 12.7 mph - N/A   Overcast
12:55 PM 53.6 °F 50.0 °F 88% 29.86 in 3.7 mi SSW 15.0 mph - N/A   Drizzle
1:00 PM 53 °F 50 °F 86% 29.88 in 4 mi SSW 15.7 mph - - Rain Heavy Drizzle
1:25 PM 53.6 °F 50.0 °F 88% 29.86 in 3.7 mi SSW 13.8 mph - N/A Rain Light Rain
1:55 PM 51.8 °F 50.0 °F 94% 29.86 in - SSW 13.8 mph - N/A Rain Rain
2:25 PM 51.8 °F 51.8 °F 100% 29.86 in 3.1 mi SSW 11.5 mph - N/A   Drizzle
2:55 PM 51.8 °F 51.8 °F 100% 29.86 in 3.1 mi SSW 12.7 mph - N/A   Light Drizzle
3:25 PM 51.8 °F 51.8 °F 100% 29.86 in 2.5 mi SSW 12.7 mph - N/A   Drizzle
3:55 PM 51.8 °F 51.8 °F 100% 29.86 in 2.5 mi SW 13.8 mph - N/A   Partly Cloudy
4:00 PM 52 °F 51 °F 95% 29.86 in 2 mi SW 13.4 mph - - Rain Light Rain Showers
4:25 PM 51.8 °F 51.8 °F 100% 29.83 in 3.1 mi SSW 10.4 mph - N/A   Drizzle
4:55 PM 51.8 °F 51.8 °F 100% 29.83 in 4.3 mi SW 9.2 mph - N/A   Overcast
5:25 PM 51.8 °F 51.8 °F 100% 29.83 in 5.0 mi SSW 10.4 mph - N/A   Overcast
5:55 PM 51.8 °F 50.0 °F 94% 29.83 in 5.6 mi SSW 10.4 mph - N/A   Overcast
6:25 PM 51.8 °F 50.0 °F 94% 29.83 in 5.0 mi SSW 10.4 mph - N/A   Overcast
6:55 PM 51.8 °F 50.0 °F 94% 29.80 in 5.0 mi SSW 10.4 mph - N/A   Overcast
7:00 PM 52 °F 51 °F 93% 29.82 in 6 mi SSW 8.9 mph - -   Mist
7:25 PM 51.8 °F 50.0 °F 94% 29.80 in 5.6 mi SSW 6.9 mph - N/A   Overcast
7:55 PM 51.8 °F 50.0 °F 94% 29.80 in 6.2 mi South 8.1 mph - N/A   Overcast
8:25 PM 51.8 °F 50.0 °F 94% 29.77 in 6.2 mi South 8.1 mph - N/A   Overcast
8:55 PM 51.8 °F 50.0 °F 94% 29.77 in 6.2 mi South 6.9 mph - N/A   Overcast
9:25 PM 51.8 °F 50.0 °F 94% 29.74 in 6.2 mi South 9.2 mph - N/A   Mostly Cloudy
9:55 PM 51.8 °F 48.2 °F 88% 29.74 in 6.2 mi South 10.4 mph - N/A   Overcast
10:00 PM 52 °F 49 °F 84% 29.76 in 11 mi South 8.9 mph - -   Overcast
10:25 PM 51.8 °F 48.2 °F 88% 29.74 in 6.2 mi South 9.2 mph - N/A   Overcast
10:55 PM 51.8 °F 48.2 °F 88% 29.74 in 6.2 mi South 10.4 mph - N/A   Overcast
11:25 PM 50.0 °F 48.2 °F 94% 29.71 in 6.2 mi South 9.2 mph - N/A   Partly Cloudy
11:55 PM 50.0 °F 48.2 °F 94% 29.71 in 6.2 mi South 6.9 mph - N/A   Partly Cloudy